Date,TemperatureHighF,TemperatureAvgF,TemperatureLowF,DewpointHighF,DewpointAvgF,DewpointLowF,HumidityHigh,HumidityAvg,HumidityLow,PressureMaxIn,PressureMinIn,WindSpeedMaxMPH,WindSpeedAvgMPH,GustSpeedMaxMPH,PrecipitationSumIn
2013-1-1,50.2,48.2,45.3,47.7,39.1,29.8,91,72,49,0.00,40.00,0,-999,0,0.00
2013-1-2,56.5,50.1,43.3,49.5,44.3,36.0,96,81,68,0.00,40.00,0,-999,0,0.00
2013-1-3,49.2,43.3,36.2,39.5,35.5,28.3,80,74,63,0.00,40.00,0,-999,0,0.00
2013-1-4,53.9,41.0,31.5,37.1,28.1,19.0,79,61,36,0.00,40.00,0,-999,0,0.00
2013-1-5,51.6,40.0,27.8,34.3,25.7,18.3,67,56,45,0.00,40.00,0,-999,0,0.00
2013-1-6,54.1,46.0,40.1,40.1,34.0,30.6,69,63,53,0.00,40.00,0,-999,0,0.00
2013-1-7,55.2,42.8,32.3,36.9,29.9,24.6,76,61,43,0.00,40.00,0,-999,0,0.00
2013-1-8,52.0,44.0,34.4,38.5,32.6,23.8,71,64,57,0.00,40.00,0,-999,0,0.00
2013-1-9,65.2,56.4,49.6,51.3,44.7,38.3,74,65,57,0.00,40.00,0,-999,0,0.00
2013-1-10,71.1,60.6,51.6,57.4,51.7,44.8,82,73,60,0.00,40.00,0,-999,0,0.00
2013-1-11,69.8,63.8,60.4,64.8,60.8,55.4,96,90,81,0.00,40.00,0,-999,0,0.00
2013-1-12,73.0,63.0,57.0,67.6,58.9,53.9,99,88,68,0.00,40.00,0,-999,0,0.00
2013-1-13,71.9,63.8,55.9,65.2,59.4,52.7,96,86,74,0.00,40.00,0,-999,0,0.00
2013-1-14,72.5,66.5,61.0,66.6,62.3,57.3,96,87,76,0.00,40.00,0,-999,0,0.00
2013-1-15,68.4,62.8,58.5,63.8,59.7,56.0,96,90,81,0.00,40.00,0,-999,0,0.00
2013-1-16,64.2,59.7,54.2,62.6,58.9,53.0,100,97,93,0.00,40.00,0,-999,0,0.00
2013-1-17,58.4,51.2,40.5,58.4,50.3,39.3,100,97,89,0.00,40.00,0,-999,0,0.00
2013-1-18,53.9,42.2,33.4,41.0,35.4,28.9,97,79,48,0.00,40.00,0,-999,0,0.00
2013-1-19,55.4,41.1,29.7,38.6,31.2,25.5,83,69,47,0.00,40.00,0,-999,0,0.00
2013-1-20,63.5,46.9,33.1,43.2,33.7,27.0,78,62,41,0.00,40.00,0,-999,0,0.00
2013-1-21,60.6,45.4,33.4,38.4,28.5,18.4,75,53,37,0.00,40.00,0,-999,0,0.00
2013-1-22,48.7,39.0,32.2,23.6,16.6,12.0,44,40,35,0.00,40.00,0,-999,0,0.00
2013-1-23,53.4,40.3,28.8,28.9,19.5,11.1,49,42,38,0.00,40.00,0,-999,0,0.00
2013-1-24,58.9,48.9,37.4,35.5,28.6,15.3,61,46,32,0.00,40.00,0,-999,0,0.00
2013-1-25,37.4,33.4,31.1,18.4,13.5,10.6,50,42,40,0.00,40.00,0,-999,0,0.00
2013-1-26,60.4,44.8,35.3,35.8,27.1,18.8,73,51,35,0.00,40.00,0,-999,0,0.00
2013-1-27,50.9,42.2,32.9,31.2,25.7,19.3,65,52,45,0.00,40.00,0,-999,0,0.00
2013-1-28,53.5,46.4,41.8,39.3,31.9,26.5,72,57,50,0.00,40.00,0,-999,0,0.00
2013-1-29,72.0,55.2,39.7,58.4,46.4,32.5,78,73,61,0.00,40.00,0,-999,0,0.00
2013-1-30,70.2,62.8,46.6,63.0,56.8,42.1,91,81,71,0.00,40.00,0,-999,0,0.00
2013-1-31,49.7,42.5,36.1,41.9,26.4,21.8,84,54,38,0.00,40.00,0,-999,0,0.00
2013-2-1,46.2,39.7,30.6,26.4,18.1,8.9,55,42,29,0.00,40.00,0,-999,0,0.00
2013-2-2,51.8,37.9,24.3,29.0,18.8,9.9,61,45,34,0.00,40.00,0,-999,0,0.00
2013-2-3,57.4,44.6,34.7,37.6,28.7,21.1,73,55,37,0.00,40.00,0,-999,0,0.00
2013-2-4,50.7,41.4,32.9,29.3,24.3,18.7,58,50,43,0.00,40.00,0,-999,0,0.00
2013-2-5,60.3,47.1,32.4,43.4,33.8,21.4,71,60,50,0.00,40.00,0,-999,0,0.00
2013-2-6,68.0,50.7,36.2,44.8,34.8,27.8,79,57,32,0.00,40.00,0,-999,0,0.00
2013-2-7,47.7,44.7,40.6,41.9,35.0,26.9,89,70,51,0.00,40.00,0,-999,0,0.00
2013-2-8,59.2,49.9,42.9,48.6,41.7,30.1,87,74,54,0.00,40.00,0,-999,0,0.00
2013-2-9,61.8,45.4,31.8,38.3,30.1,24.5,75,56,38,0.00,40.00,0,-999,0,0.00
2013-2-10,63.3,49.4,37.4,44.2,35.7,24.5,79,60,48,0.00,40.00,0,-999,0,0.00
2013-2-11,60.3,54.2,50.2,58.6,50.7,43.9,94,88,79,0.00,40.00,0,-999,0,0.00
2013-2-12,58.1,51.5,45.9,48.8,45.5,41.3,91,80,60,0.00,40.00,0,-999,0,0.00
2013-2-13,54.9,47.0,40.4,50.3,42.9,33.7,94,86,69,0.00,40.00,0,-999,0,0.00
2013-2-14,54.6,43.2,35.1,40.7,34.2,30.2,84,71,53,0.00,40.00,0,-999,0,0.00
2013-2-15,63.4,46.9,32.9,44.5,34.1,27.0,83,63,37,0.00,40.00,0,-999,0,0.00
2013-2-16,49.6,41.6,32.1,32.0,23.1,11.1,61,48,34,0.00,40.00,0,-999,0,0.00
2013-2-17,47.1,35.3,25.5,20.3,13.6,8.7,45,39,29,0.00,40.00,0,-999,0,0.00
2013-2-18,58.5,41.7,26.1,31.6,21.5,13.2,56,44,35,0.00,40.00,0,-999,0,0.00
2013-2-19,56.8,45.9,39.7,43.3,29.8,20.4,74,54,39,0.00,40.00,0,-999,0,0.00
2013-2-20,56.3,43.3,31.8,28.2,19.7,14.5,48,39,29,0.00,40.00,0,-999,0,0.00
2013-2-21,62.9,47.9,32.2,32.5,22.9,13.6,48,38,30,0.00,40.00,0,-999,0,0.00
2013-2-22,53.8,42.5,39.9,36.2,33.5,26.4,83,72,36,0.00,40.00,0,-999,0,0.00
2013-2-23,47.3,43.9,40.5,43.7,40.1,35.8,89,86,82,0.00,40.00,0,-999,0,0.00
2013-2-24,65.8,50.0,36.7,47.2,38.5,30.3,93,68,35,0.00,40.00,0,-999,0,0.00
2013-2-25,49.8,45.1,38.9,32.5,30.0,27.8,72,56,46,0.00,40.00,0,-999,0,0.00
2013-2-26,46.8,40.4,36.1,42.0,35.3,30.1,88,82,72,0.00,40.00,0,-999,0,0.00
2013-2-27,58.7,49.3,42.3,38.9,34.4,30.9,76,57,41,0.00,40.00,0,-999,0,0.00
2013-2-28,51.1,43.9,36.7,32.5,27.0,20.9,59,51,45,0.00,40.00,0,-999,0,0.00
2013-3-1,50.6,40.7,32.2,31.2,24.4,19.4,62,52,44,0.00,40.00,0,-999,0,0.00
2013-3-2,48.5,39.9,34.0,29.8,24.9,19.9,67,55,42,0.00,40.00,0,-999,0,0.00
2013-3-3,46.2,36.5,28.4,24.0,18.3,13.4,56,47,38,0.00,40.00,0,-999,0,0.00
2013-3-4,59.8,43.8,28.8,32.8,22.8,14.8,52,43,35,0.00,40.00,0,-999,0,0.00
2013-3-5,68.3,53.2,40.6,51.7,36.8,22.9,79,54,43,0.00,40.00,0,-999,0,0.00
2013-3-6,45.3,39.2,33.8,24.6,21.5,16.3,56,49,42,0.00,40.00,0,-999,0,0.00
2013-3-7,60.5,44.3,29.8,35.4,26.5,19.5,68,50,36,0.00,40.00,0,-999,0,0.00
2013-3-8,62.3,46.2,32.2,33.9,25.7,19.1,60,45,33,0.00,40.00,0,-999,0,0.00
2013-3-9,64.0,48.6,35.1,35.8,27.4,20.1,55,44,34,0.00,40.00,0,-999,0,0.00
2013-3-10,69.9,56.8,45.7,40.8,35.1,27.3,53,45,34,0.00,40.00,0,-999,0,0.00
2013-3-11,66.0,58.3,53.2,53.1,46.6,39.4,82,65,50,0.00,40.00,0,-999,0,0.00
2013-3-12,63.4,53.8,43.2,53.8,40.9,29.5,86,64,39,0.00,40.00,0,-999,0,0.00
2013-3-13,57.7,47.7,38.7,32.4,26.4,17.3,60,44,31,0.00,40.00,0,-999,0,0.00
2013-3-14,56.4,43.6,31.5,29.1,19.5,12.2,45,38,29,0.00,40.00,0,-999,0,0.00
2013-3-15,72.5,54.9,36.7,41.8,29.8,16.3,50,39,32,0.00,40.00,0,-999,0,0.00
2013-3-16,77.8,65.1,53.8,44.6,38.5,33.8,50,38,29,0.00,40.00,0,-999,0,0.00
2013-3-17,73.4,63.7,54.1,50.9,42.5,33.1,56,46,35,0.00,40.00,0,-999,0,0.00
2013-3-18,60.6,52.2,45.7,49.6,43.5,39.9,89,73,55,0.00,40.00,0,-999,0,0.00
2013-3-19,67.3,54.5,46.6,46.4,37.8,25.5,94,59,27,0.00,40.00,0,-999,0,0.00
2013-3-20,60.1,49.9,41.5,31.6,25.3,20.5,50,39,28,0.00,40.00,0,-999,0,0.00
2013-3-21,50.9,42.9,35.2,22.3,17.7,12.2,45,36,28,0.00,40.00,0,-999,0,0.00
2013-3-22,49.9,43.6,35.8,25.7,20.0,12.5,42,39,35,0.00,40.00,0,-999,0,0.00
2013-3-23,52.0,47.8,42.7,44.2,36.8,25.7,82,67,42,0.00,40.00,0,-999,0,0.00
2013-3-24,48.7,47.7,46.0,45.7,43.7,40.6,93,86,80,0.00,40.00,0,-999,0,0.00
2013-3-25,46.9,41.3,36.4,40.6,24.1,19.7,80,51,39,0.00,40.00,0,-999,0,0.00
2013-3-26,48.3,39.2,32.5,26.4,21.7,18.8,64,50,40,0.00,40.00,0,-999,0,0.00
2013-3-27,56.8,43.4,31.3,30.2,23.7,18.3,60,46,35,0.00,40.00,0,-999,0,0.00
2013-3-28,63.4,47.9,32.0,33.8,25.0,17.3,57,42,30,0.00,40.00,0,-999,0,0.00
2013-3-29,66.5,51.3,34.3,36.8,28.6,20.3,59,42,33,0.00,40.00,0,-999,0,0.00
2013-3-30,72.3,59.8,48.2,47.5,37.2,29.1,66,44,33,0.00,40.00,0,-999,0,0.00
2013-3-31,69.1,61.9,57.0,57.5,52.2,47.3,79,71,60,0.00,40.00,0,-999,0,0.00
2013-4-1,73.2,63.4,55.9,57.1,47.7,37.8,89,60,32,0.00,40.00,0,-999,0,0.00
2013-4-2,70.5,58.1,46.8,40.7,35.5,28.2,62,44,33,0.00,40.00,0,-999,0,0.00
2013-4-3,62.1,54.5,46.6,34.5,30.2,25.2,56,40,34,0.00,40.00,0,-999,0,0.00
2013-4-4,49.6,44.1,40.3,36.8,35.2,34.1,81,71,56,0.00,40.00,0,-999,0,0.00
2013-4-5,63.5,49.6,38.8,46.9,39.9,33.4,83,70,51,0.00,40.00,0,-999,0,0.00
2013-4-6,71.5,56.5,40.3,47.3,39.4,33.7,80,56,34,0.00,40.00,0,-999,0,0.00
2013-4-7,74.7,59.9,44.4,50.7,42.2,32.8,69,53,39,0.00,40.00,0,-999,0,0.00
2013-4-8,78.1,65.4,54.1,57.2,49.9,43.4,75,59,42,0.00,40.00,0,-999,0,0.00
2013-4-9,81.4,67.8,55.4,60.7,53.2,47.3,77,61,44,0.00,40.00,0,-999,0,0.00
2013-4-10,83.2,70.1,58.6,62.8,55.3,50.1,80,61,43,0.00,40.00,0,-999,0,0.00
2013-4-11,80.8,70.0,60.8,64.8,59.0,51.1,81,68,57,0.00,40.00,0,-999,0,0.00
2013-4-12,72.2,66.6,59.3,64.8,52.5,37.0,89,64,36,0.00,40.00,0,-999,0,0.00
2013-4-13,76.8,63.0,48.7,44.1,40.0,36.2,64,44,30,0.00,40.00,0,-999,0,0.00
2013-4-14,64.0,57.4,49.3,52.8,44.9,37.4,78,63,45,0.00,40.00,0,-999,0,0.00
2013-4-15,74.5,65.2,57.9,60.0,56.1,51.6,86,73,59,0.00,40.00,0,-999,0,0.00
2013-4-16,79.7,69.4,61.3,63.1,59.0,54.2,88,71,51,0.00,40.00,0,-999,0,0.00
2013-4-17,83.6,71.3,63.3,65.4,60.3,56.7,81,69,51,0.00,40.00,0,-999,0,0.00
2013-4-18,81.2,70.1,61.0,65.6,60.8,56.6,87,73,55,0.00,40.00,0,-999,0,0.00
2013-4-19,70.8,62.4,49.7,66.2,57.0,45.5,88,83,70,0.00,40.00,0,-999,0,0.00
2013-4-20,64.4,52.8,41.0,45.5,39.3,35.7,86,62,37,0.00,40.00,0,-999,0,0.00
2013-4-21,67.5,55.7,43.3,42.7,39.0,34.8,73,55,37,0.00,40.00,0,-999,0,0.00
2013-4-22,66.6,57.2,49.3,43.7,39.4,36.2,62,52,43,0.00,40.00,0,-999,0,0.00
2013-4-23,71.2,58.1,44.6,48.2,41.7,33.8,68,55,44,0.00,40.00,0,-999,0,0.00
2013-4-24,74.3,63.0,53.2,57.9,52.0,44.1,80,68,52,0.00,40.00,0,-999,0,0.00
2013-4-25,72.5,62.6,53.6,58.3,47.6,36.4,82,61,34,0.00,40.00,0,-999,0,0.00
2013-4-26,73.6,59.8,43.3,45.0,38.9,30.8,63,47,34,0.00,40.00,0,-999,0,0.00
2013-4-27,65.6,60.5,53.7,53.2,48.8,43.2,75,66,49,0.00,40.00,0,-999,0,0.00
2013-4-28,60.6,57.4,55.8,58.0,53.9,50.9,94,88,75,0.00,40.00,0,-999,0,0.00
2013-4-29,68.7,60.8,56.3,62.9,58.4,55.1,98,92,79,0.00,40.00,0,-999,0,0.00
2013-4-30,74.7,63.6,55.0,64.7,58.4,54.0,99,84,59,0.00,40.00,0,-999,0,0.00
2013-5-1,68.7,63.8,60.1,58.8,56.1,53.5,89,77,63,0.00,40.00,0,-999,0,0.00
2013-5-2,67.5,61.7,59.5,60.3,57.1,53.9,92,85,75,0.00,40.00,0,-999,0,0.00
2013-5-3,63.0,60.2,58.6,59.6,57.3,54.2,93,90,82,0.00,40.00,0,-999,0,0.00
2013-5-4,59.4,54.7,51.1,56.6,53.2,48.8,100,95,84,0.00,40.00,0,-999,0,0.00
2013-5-5,63.1,57.9,54.5,61.5,57.3,53.5,100,98,90,0.00,40.00,0,-999,0,0.00
2013-5-6,59.7,54.0,48.3,53.4,50.8,47.3,98,89,74,0.00,40.00,0,-999,0,0.00
2013-5-7,66.9,58.7,51.3,56.7,52.8,49.4,96,81,66,0.00,40.00,0,-999,0,0.00
2013-5-8,74.8,64.5,55.0,58.6,54.3,50.4,87,71,49,0.00,40.00,0,-999,0,0.00
2013-5-9,80.3,68.4,57.2,62.0,56.5,51.8,86,67,45,0.00,40.00,0,-999,0,0.00
2013-5-10,78.6,69.3,59.6,63.9,58.4,53.9,83,69,55,0.00,40.00,0,-999,0,0.00
2013-5-11,75.3,68.5,62.0,64.3,60.3,56.2,88,76,66,0.00,40.00,0,-999,0,0.00
2013-5-12,69.9,63.4,56.2,62.1,49.9,34.7,90,65,35,0.00,40.00,0,-999,0,0.00
2013-5-13,68.7,58.2,46.2,39.6,36.3,32.6,63,45,33,0.00,40.00,0,-999,0,0.00
2013-5-14,74.7,61.1,46.2,49.9,42.2,33.6,67,51,40,0.00,40.00,0,-999,0,0.00
2013-5-15,84.7,71.7,60.4,58.2,53.5,49.4,70,54,36,0.00,40.00,0,-999,0,0.00
2013-5-16,80.3,71.2,62.6,62.0,56.6,51.3,70,60,50,0.00,40.00,0,-999,0,0.00
2013-5-17,80.4,70.1,60.1,63.0,57.5,51.5,78,65,50,0.00,40.00,0,-999,0,0.00
2013-5-18,74.5,70.0,66.4,65.2,62.9,59.6,88,78,69,0.00,40.00,0,-999,0,0.00
2013-5-19,71.4,69.0,66.6,69.0,66.2,63.6,96,91,82,0.00,40.00,0,-999,0,0.00
2013-5-20,80.3,71.5,64.8,71.1,67.6,64.4,99,88,71,0.00,40.00,0,-999,0,0.00
2013-5-21,84.0,74.6,67.1,72.6,68.5,63.3,94,82,67,0.00,40.00,0,-999,0,0.00
2013-5-22,81.8,72.4,65.5,71.8,66.2,61.9,90,81,70,0.00,40.00,0,-999,0,0.00
2013-5-23,81.2,72.7,66.7,69.3,63.7,54.2,94,75,50,0.00,40.00,0,-999,0,0.00
2013-5-24,75.2,69.0,62.0,55.1,50.4,41.4,68,53,38,0.00,40.00,0,-999,0,0.00
2013-5-25,75.2,63.6,51.3,49.4,45.1,40.1,69,52,37,0.00,40.00,0,-999,0,0.00
2013-5-26,78.0,66.5,55.2,52.9,49.0,44.1,69,54,40,0.00,40.00,0,-999,0,0.00
2013-5-27,80.4,70.1,57.9,60.6,56.3,49.7,77,62,49,0.00,40.00,0,-999,0,0.00
2013-5-28,81.7,73.2,65.5,63.3,59.9,56.2,75,64,52,0.00,40.00,0,-999,0,0.00
2013-5-29,80.7,72.1,63.0,65.5,60.9,55.6,79,68,57,0.00,40.00,0,-999,0,0.00
2013-5-30,80.4,72.8,66.9,67.8,64.2,59.6,87,75,65,0.00,40.00,0,-999,0,0.00
2013-5-31,82.6,74.9,68.2,68.3,65.3,62.1,86,73,58,0.00,40.00,0,-999,0,0.00
2013-6-1,83.0,75.4,68.0,68.3,65.2,61.6,83,71,58,0.00,40.00,0,-999,0,0.00
2013-6-2,81.4,73.7,68.6,72.9,66.7,62.4,91,79,69,0.00,40.00,0,-999,0,0.00
2013-6-3,82.5,73.8,68.0,72.2,68.5,65.6,96,84,65,0.00,40.00,0,-999,0,0.00
2013-6-4,83.8,75.8,67.5,69.9,67.5,64.2,90,76,59,0.00,40.00,0,-999,0,0.00
2013-6-5,80.0,73.2,70.3,74.1,69.0,65.5,94,87,76,0.00,40.00,0,-999,0,0.00
2013-6-6,76.2,71.0,67.6,73.0,69.4,66.7,99,95,89,0.00,40.00,0,-999,0,0.00
2013-6-7,80.8,72.1,68.2,74.1,69.6,67.5,99,92,74,0.00,40.00,0,-999,0,0.00
2013-6-8,78.6,72.5,66.9,70.5,68.4,65.9,98,88,76,0.00,40.00,0,-999,0,0.00
2013-6-9,81.1,73.8,70.0,73.7,70.1,67.6,94,88,76,0.00,40.00,0,-999,0,0.00
2013-6-10,73.8,70.9,67.8,72.4,69.9,66.5,99,97,94,0.00,40.00,0,-999,0,0.00
2013-6-11,86.0,77.2,70.1,76.1,72.4,69.7,99,86,64,0.00,40.00,0,-999,0,0.00
2013-6-12,89.4,80.6,71.7,76.4,72.9,69.2,93,78,63,0.00,40.00,0,-999,0,0.00
2013-6-13,89.2,80.1,71.4,73.7,71.0,62.3,91,75,55,0.00,40.00,0,-999,0,0.00
2013-6-14,81.5,74.4,68.7,70.1,64.5,58.0,94,74,44,0.00,40.00,0,-999,0,0.00
2013-6-15,78.5,72.3,64.2,64.4,61.6,58.6,83,70,57,0.00,40.00,0,-999,0,0.00
2013-6-16,82.1,74.3,66.7,70.0,65.6,59.9,87,75,65,0.00,40.00,0,-999,0,0.00
2013-6-17,81.5,73.4,69.4,73.6,68.7,64.3,93,85,73,0.00,40.00,0,-999,0,0.00
2013-6-18,79.0,72.4,69.2,75.8,70.5,67.9,97,94,87,0.00,40.00,0,-999,0,0.00
2013-6-19,78.0,73.5,70.7,73.3,71.0,68.9,99,92,78,0.00,40.00,0,-999,0,0.00
2013-6-20,79.8,73.2,66.8,70.5,67.4,64.9,96,83,65,0.00,40.00,0,-999,0,0.00
2013-6-21,81.0,73.3,66.0,67.8,65.2,62.9,91,77,58,0.00,40.00,0,-999,0,0.00
2013-6-22,81.0,73.0,64.8,66.6,64.6,61.1,89,75,60,0.00,40.00,0,-999,0,0.00
2013-6-23,80.8,74.1,67.6,72.4,68.2,64.2,90,82,72,0.00,40.00,0,-999,0,0.00
2013-6-24,82.1,75.6,69.4,74.3,70.6,67.1,93,85,75,0.00,40.00,0,-999,0,0.00
2013-6-25,84.5,75.3,70.0,74.6,70.7,67.6,93,86,65,0.00,40.00,0,-999,0,0.00
2013-6-26,84.1,77.0,70.5,76.3,72.9,69.0,97,88,74,0.00,40.00,0,-999,0,0.00
2013-6-27,85.9,79.6,74.2,75.4,73.3,71.7,92,82,68,0.00,40.00,0,-999,0,0.00
2013-6-28,88.2,79.0,73.2,74.7,70.9,66.7,89,77,58,0.00,40.00,0,-999,0,0.00
2013-6-29,83.5,76.3,72.3,73.6,69.9,66.9,90,81,65,0.00,40.00,0,-999,0,0.00
2013-6-30,80.2,74.9,70.9,72.4,69.8,67.2,91,84,75,0.00,40.00,0,-999,0,0.00
2013-7-1,80.4,74.3,71.1,72.8,69.8,66.3,94,86,75,0.00,40.00,0,-999,0,0.00
2013-7-2,82.1,75.9,72.0,72.5,70.2,67.1,92,83,69,0.00,40.00,0,-999,0,0.00
2013-7-3,77.7,72.4,68.6,73.8,69.6,67.2,97,91,82,0.00,40.00,0,-999,0,0.00
2013-7-4,77.9,71.6,68.5,76.4,70.9,67.7,100,98,92,0.00,40.00,0,-999,0,0.00
2013-7-5,79.3,73.3,70.3,75.3,72.2,69.7,100,96,87,0.00,40.00,0,-999,0,0.00
2013-7-6,81.0,74.7,70.0,77.1,73.1,69.3,100,95,83,0.00,40.00,0,-999,0,0.00
2013-7-7,80.4,75.3,72.2,76.5,73.6,71.0,99,95,87,0.00,40.00,0,-999,0,0.00
2013-7-8,82.4,75.8,70.2,76.6,73.2,69.5,99,92,81,0.00,40.00,0,-999,0,0.00
2013-7-9,81.2,76.5,71.2,78.2,74.1,69.6,97,92,86,0.00,40.00,0,-999,0,0.00
2013-7-10,82.8,75.2,71.1,78.9,73.8,70.4,100,96,84,0.00,40.00,0,-999,0,0.00
2013-7-11,78.8,74.5,71.4,76.4,73.4,70.9,100,96,91,0.00,40.00,0,-999,0,0.00
2013-7-12,82.2,74.4,68.9,77.3,72.1,66.8,98,93,83,0.00,40.00,0,-999,0,0.00
2013-7-13,76.1,72.0,68.8,73.3,70.7,67.7,98,96,90,0.00,40.00,0,-999,0,0.00
2013-7-14,76.9,73.6,71.0,76.1,73.1,70.5,100,98,96,0.00,40.00,0,-999,0,0.00
2013-7-15,81.0,74.3,70.3,76.1,72.1,68.9,100,93,79,0.00,40.00,0,-999,0,0.00
2013-7-16,83.9,75.7,69.6,75.7,71.6,68.6,99,88,70,0.00,40.00,0,-999,0,0.00
2013-7-17,85.7,76.6,70.3,77.0,72.3,68.3,96,87,74,0.00,40.00,0,-999,0,0.00
2013-7-18,82.4,75.6,69.6,75.4,71.9,68.1,97,89,78,0.00,40.00,0,-999,0,0.00
2013-7-19,83.9,78.2,72.9,76.7,73.8,71.3,96,87,75,0.00,40.00,0,-999,0,0.00
2013-7-20,82.9,76.7,73.4,76.2,73.3,71.0,94,89,78,0.00,40.00,0,-999,0,0.00
2013-7-21,81.3,75.9,71.6,77.5,73.4,70.4,98,92,84,0.00,40.00,0,-999,0,0.00
2013-7-22,80.6,75.5,72.0,76.2,73.0,70.8,97,92,83,0.00,40.00,0,-999,0,0.00
2013-7-23,82.3,76.7,71.6,75.2,72.2,69.9,94,86,76,0.00,40.00,0,-999,0,0.00
2013-7-24,84.3,76.9,72.4,76.0,71.3,68.0,92,83,73,0.00,40.00,0,-999,0,0.00
2013-7-25,83.5,76.2,69.6,72.5,69.8,66.9,92,81,67,0.00,40.00,0,-999,0,0.00
2013-7-26,81.9,75.0,70.5,74.6,70.5,66.4,92,86,77,0.00,40.00,0,-999,0,0.00
2013-7-27,79.8,74.6,70.5,74.6,71.2,68.2,96,89,80,0.00,40.00,0,-999,0,0.00
2013-7-28,82.5,75.1,69.3,73.5,70.6,67.6,94,86,73,0.00,40.00,0,-999,0,0.00
2013-7-29,82.1,74.8,69.8,72.3,68.8,64.0,94,82,64,0.00,40.00,0,-999,0,0.00
2013-7-30,82.7,74.0,64.8,70.3,66.2,60.8,89,77,65,0.00,40.00,0,-999,0,0.00
2013-7-31,76.1,74.2,72.3,72.4,70.2,67.2,92,88,79,0.00,40.00,0,-999,0,0.00
2013-8-1,83.6,77.0,72.5,75.2,72.7,70.6,97,87,74,0.00,40.00,0,-999,0,0.00
2013-8-2,82.5,76.3,70.9,75.2,71.8,68.2,97,86,73,0.00,40.00,0,-999,0,0.00
2013-8-3,83.1,77.3,70.9,73.0,71.0,68.9,94,81,68,0.00,40.00,0,-999,0,0.00
2013-8-4,85.8,79.1,74.8,74.0,71.7,69.2,89,78,65,0.00,40.00,0,-999,0,0.00
2013-8-5,82.2,76.7,72.0,74.7,71.0,68.6,90,83,76,0.00,40.00,0,-999,0,0.00
2013-8-6,82.6,77.8,74.7,76.3,73.3,70.7,92,86,78,0.00,40.00,0,-999,0,0.00
2013-8-7,78.3,74.5,72.8,75.8,72.7,70.1,97,94,89,0.00,40.00,0,-999,0,0.00
2013-8-8,82.4,76.3,72.3,77.1,74.2,71.7,98,94,83,0.00,40.00,0,-999,0,0.00
2013-8-9,86.0,79.2,73.1,77.3,74.6,72.4,98,87,70,0.00,40.00,0,-999,0,0.00
2013-8-10,86.2,78.1,74.5,77.7,73.8,71.1,93,87,73,0.00,40.00,0,-999,0,0.00
2013-8-11,86.4,78.4,71.8,77.3,73.4,68.2,97,85,68,0.00,40.00,0,-999,0,0.00
2013-8-12,85.3,77.9,72.6,77.0,73.2,68.8,92,86,74,0.00,40.00,0,-999,0,0.00
2013-8-13,84.3,77.5,72.3,74.8,71.8,69.6,92,83,70,0.00,40.00,0,-999,0,0.00
2013-8-14,78.3,75.3,71.7,71.8,69.5,65.5,90,82,73,0.00,40.00,0,-999,0,0.00
2013-8-15,72.0,69.5,68.0,66.0,62.0,58.3,87,77,67,0.00,40.00,0,-999,0,0.00
2013-8-16,68.4,65.1,61.7,64.2,60.9,58.3,94,87,70,0.00,40.00,0,-999,0,0.00
2013-8-17,66.7,64.0,61.3,66.4,62.8,58.9,99,96,90,0.00,40.00,0,-999,0,0.00
2013-8-18,74.5,69.7,66.4,71.9,68.6,66.1,100,97,89,0.00,40.00,0,-999,0,0.00
2013-8-19,74.8,71.2,69.3,73.4,70.7,68.9,99,98,94,0.00,40.00,0,-999,0,0.00
2013-8-20,78.6,73.1,69.8,74.3,71.7,69.5,99,95,87,0.00,40.00,0,-999,0,0.00
2013-8-21,79.3,73.3,69.1,74.6,71.3,68.2,98,94,86,0.00,40.00,0,-999,0,0.00
2013-8-22,82.5,75.4,70.0,74.3,71.0,67.9,98,87,75,0.00,40.00,0,-999,0,0.00
2013-8-23,85.3,76.4,69.8,73.4,69.9,67.4,93,81,62,0.00,40.00,0,-999,0,0.00
2013-8-24,77.5,73.3,69.4,68.5,66.3,64.3,91,79,67,0.00,40.00,0,-999,0,0.00
2013-8-25,77.5,70.8,64.4,65.1,61.7,59.0,87,74,55,0.00,40.00,0,-999,0,0.00
2013-8-26,78.0,69.5,61.3,62.3,59.8,56.4,87,72,55,0.00,40.00,0,-999,0,0.00
2013-8-27,81.4,72.2,63.5,67.1,63.3,58.4,84,74,57,0.00,40.00,0,-999,0,0.00
2013-8-28,84.8,75.5,67.6,71.7,67.7,63.6,88,77,60,0.00,40.00,0,-999,0,0.00
2013-8-29,87.3,79.3,72.0,73.9,71.1,67.5,87,77,63,0.00,40.00,0,-999,0,0.00
2013-8-30,81.3,77.3,73.6,73.5,71.8,70.1,90,83,76,0.00,40.00,0,-999,0,0.00
2013-8-31,85.1,76.9,71.8,75.6,71.9,68.7,92,85,65,0.00,40.00,0,-999,0,0.00
2013-9-1,83.0,74.3,71.8,76.6,71.4,68.3,94,91,74,0.00,40.00,0,-999,0,0.00
2013-9-2,81.1,75.2,71.4,73.6,71.3,69.8,96,88,77,0.00,40.00,0,-999,0,0.00
2013-9-3,85.6,77.6,72.1,74.6,70.8,67.4,92,81,64,0.00,40.00,0,-999,0,0.00
2013-9-4,82.4,75.5,68.7,71.3,67.8,65.0,90,78,63,0.00,40.00,0,-999,0,0.00
2013-9-5,82.9,75.5,69.3,71.9,69.1,65.9,90,81,67,0.00,40.00,0,-999,0,0.00
2013-9-6,81.5,74.4,68.1,70.1,65.8,63.7,90,76,57,0.00,40.00,0,-999,0,0.00
2013-9-7,80.8,73.1,66.0,66.5,64.1,61.3,86,74,59,0.00,40.00,0,-999,0,0.00
2013-9-8,84.4,75.1,66.7,70.2,66.1,62.2,87,74,58,0.00,40.00,0,-999,0,0.00
2013-9-9,84.4,76.6,70.5,70.4,67.0,64.5,88,73,54,0.00,40.00,0,-999,0,0.00
2013-9-10,83.3,75.6,69.4,71.1,67.0,64.5,87,75,61,0.00,40.00,0,-999,0,0.00
2013-9-11,83.7,75.4,67.9,69.3,65.8,62.8,89,73,54,0.00,40.00,0,-999,0,0.00
2013-9-12,85.5,75.1,68.2,69.8,65.8,62.2,82,73,59,0.00,40.00,0,-999,0,0.00
2013-9-13,84.4,76.2,68.6,68.2,63.2,54.9,83,66,43,0.00,40.00,0,-999,0,0.00
2013-9-14,77.5,68.6,60.1,57.6,54.1,48.8,71,61,47,0.00,40.00,0,-999,0,0.00
2013-9-15,80.7,71.5,62.8,67.1,61.3,54.9,77,71,61,0.00,40.00,0,-999,0,0.00
2013-9-16,83.3,74.5,68.0,69.7,65.0,62.2,86,73,55,0.00,40.00,0,-999,0,0.00
2013-9-17,73.8,70.8,68.7,63.1,59.0,56.5,78,67,55,0.00,40.00,0,-999,0,0.00
2013-9-18,75.2,69.4,64.9,58.6,56.4,54.5,69,63,53,0.00,40.00,0,-999,0,0.00
2013-9-19,79.7,69.8,61.0,62.4,58.5,54.6,82,68,52,0.00,40.00,0,-999,0,0.00
2013-9-20,82.6,72.6,63.9,64.7,61.3,57.8,82,68,51,0.00,40.00,0,-999,0,0.00
2013-9-21,74.3,70.5,66.8,69.0,64.8,60.9,90,82,69,0.00,40.00,0,-999,0,0.00
2013-9-22,75.4,68.0,61.9,65.4,62.4,59.6,92,83,66,0.00,40.00,0,-999,0,0.00
2013-9-23,75.2,67.8,61.9,63.2,59.7,57.0,88,76,59,0.00,40.00,0,-999,0,0.00
2013-9-24,70.2,66.9,64.6,62.7,60.6,57.5,90,80,73,0.00,40.00,0,-999,0,0.00
2013-9-25,65.3,64.1,62.5,63.5,62.4,61.3,97,94,90,0.00,40.00,0,-999,0,0.00
2013-9-26,72.5,66.0,62.1,63.9,62.0,60.7,98,88,70,0.00,40.00,0,-999,0,0.00
2013-9-27,73.7,64.9,57.2,60.9,57.8,54.3,92,79,58,0.00,40.00,0,-999,0,0.00
2013-9-28,71.0,63.3,56.7,56.9,54.6,52.0,87,74,58,0.00,40.00,0,-999,0,0.00
2013-9-29,70.1,62.3,55.7,57.3,54.4,50.9,84,76,60,0.00,40.00,0,-999,0,0.00
2013-9-30,72.1,63.7,55.6,58.8,55.9,52.0,90,76,60,0.00,40.00,0,-999,0,0.00
2013-10-1,76.0,65.1,55.9,61.7,56.9,52.0,89,76,56,0.00,40.00,0,-999,0,0.00
2013-10-2,77.8,67.1,58.3,63.7,59.5,54.7,91,78,60,0.00,40.00,0,-999,0,0.00
2013-10-3,78.5,68.7,60.1,64.8,60.9,56.8,91,77,60,0.00,40.00,0,-999,0,0.00
2013-10-4,79.9,68.6,60.1,65.0,60.8,56.6,90,77,58,0.00,40.00,0,-999,0,0.00
2013-10-5,81.1,70.1,61.0,66.9,62.1,57.6,91,77,58,0.00,40.00,0,-999,0,0.00
2013-10-6,80.0,70.5,62.1,66.3,63.0,58.7,90,78,59,0.00,40.00,0,-999,0,0.00
2013-10-7,75.3,69.6,64.4,68.2,64.8,58.0,93,85,70,0.00,40.00,0,-999,0,0.00
2013-10-8,69.1,64.1,59.8,59.2,52.9,48.6,79,67,58,0.00,40.00,0,-999,0,0.00
2013-10-9,70.7,62.1,53.9,52.0,48.5,44.6,74,62,45,0.00,40.00,0,-999,0,0.00
2013-10-10,75.4,62.9,52.5,58.0,52.2,46.9,84,69,47,0.00,40.00,0,-999,0,0.00
2013-10-11,76.7,64.7,54.9,60.3,54.6,49.5,84,71,46,0.00,40.00,0,-999,0,0.00
2013-10-12,76.4,65.5,55.6,60.1,55.8,50.7,86,72,52,0.00,40.00,0,-999,0,0.00
2013-10-13,75.0,66.8,59.5,63.5,59.8,55.5,91,79,65,0.00,40.00,0,-999,0,0.00
2013-10-14,70.9,66.9,64.0,61.4,60.6,59.6,88,80,71,0.00,40.00,0,-999,0,0.00
2013-10-15,67.1,64.0,60.6,60.1,58.6,57.1,89,83,74,0.00,40.00,0,-999,0,0.00
2013-10-16,71.0,63.8,56.8,60.3,58.1,54.6,93,82,67,0.00,40.00,0,-999,0,0.00
2013-10-17,70.5,66.4,63.1,67.4,63.6,60.0,97,91,85,0.00,40.00,0,-999,0,0.00
2013-10-18,68.5,62.6,57.9,65.8,59.0,56.1,97,88,71,0.00,40.00,0,-999,0,0.00
2013-10-19,63.1,59.9,56.4,57.9,56.1,53.5,93,87,79,0.00,40.00,0,-999,0,0.00
2013-10-20,66.3,55.9,47.9,53.4,48.1,43.7,93,77,48,0.00,40.00,0,-999,0,0.00
2013-10-21,66.8,55.9,46.1,57.7,50.1,40.9,89,81,71,0.00,40.00,0,-999,0,0.00
2013-10-22,66.6,61.1,57.7,58.9,56.5,54.1,93,85,70,0.00,40.00,0,-999,0,0.00
2013-10-23,61.9,55.5,46.6,54.1,43.4,31.8,89,67,39,0.00,40.00,0,-999,0,0.00
2013-10-24,63.7,50.6,39.1,41.1,35.9,30.6,73,58,38,0.00,40.00,0,-999,0,0.00
2013-10-25,55.9,47.8,40.0,37.7,32.1,27.7,68,55,39,0.00,40.00,0,-999,0,0.00
2013-10-26,58.5,45.7,33.8,37.7,31.4,24.2,71,58,44,0.00,40.00,0,-999,0,0.00
2013-10-27,68.4,54.3,41.5,50.1,42.4,33.2,75,65,50,0.00,40.00,0,-999,0,0.00
2013-10-28,64.2,58.3,54.1,56.8,52.3,48.0,86,80,73,0.00,40.00,0,-999,0,0.00
2013-10-29,68.6,59.2,52.0,57.9,53.2,48.8,91,81,66,0.00,40.00,0,-999,0,0.00
2013-10-30,74.7,63.4,55.6,60.3,55.4,52.5,91,76,52,0.00,40.00,0,-999,0,0.00
2013-10-31,73.6,65.6,58.5,62.0,57.4,53.1,84,75,66,0.00,40.00,0,-999,0,0.00
2013-11-1,70.0,65.7,59.2,63.0,59.5,56.6,92,81,66,0.00,40.00,0,-999,0,0.00
2013-11-2,67.8,58.5,49.6,56.2,44.5,38.7,91,62,35,0.00,40.00,0,-999,0,0.00
2013-11-3,62.6,52.2,41.8,42.5,38.1,33.2,74,60,45,0.00,40.00,0,-999,0,0.00
2013-11-4,60.2,49.7,41.2,39.9,36.0,33.3,74,60,43,0.00,40.00,0,-999,0,0.00
2013-11-5,61.5,50.7,42.3,41.4,35.3,30.6,68,56,42,0.00,40.00,0,-999,0,0.00
2013-11-6,70.3,59.1,51.5,54.8,48.7,41.4,78,69,57,0.00,40.00,0,-999,0,0.00
2013-11-7,69.8,57.5,47.8,59.9,45.3,31.6,89,66,36,0.00,40.00,0,-999,0,0.00
2013-11-8,59.7,48.0,37.4,34.0,30.6,26.9,68,52,37,0.00,40.00,0,-999,0,0.00
2013-11-9,59.4,47.5,36.0,37.5,31.9,25.8,69,56,41,0.00,40.00,0,-999,0,0.00
2013-11-10,70.2,55.2,45.7,44.2,37.8,31.0,67,53,36,0.00,40.00,0,-999,0,0.00
2013-11-11,61.7,49.6,39.9,35.4,31.7,28.9,66,51,37,0.00,40.00,0,-999,0,0.00
2013-11-12,66.3,48.1,36.1,39.4,29.5,14.7,70,50,36,0.00,40.00,0,-999,0,0.00
2013-11-13,49.6,37.0,26.8,24.2,16.8,12.9,52,43,33,0.00,40.00,0,-999,0,0.00
2013-11-14,57.7,39.2,25.5,30.7,19.7,12.5,55,44,35,0.00,40.00,0,-999,0,0.00
2013-11-15,56.1,46.4,34.9,41.9,30.6,16.5,75,55,47,0.00,40.00,0,-999,0,0.00
2013-11-16,62.6,55.4,49.5,54.4,49.3,41.9,84,80,74,0.00,40.00,0,-999,0,0.00
2013-11-17,67.5,61.8,57.7,66.4,58.6,52.9,97,89,83,0.00,40.00,0,-999,0,0.00
2013-11-18,73.7,64.9,51.4,68.1,50.5,29.4,98,65,31,0.00,40.00,0,-999,0,0.00
2013-11-19,58.9,49.1,38.4,34.3,30.2,26.8,69,49,37,0.00,40.00,0,-999,0,0.00
2013-11-20,54.7,47.5,38.9,30.2,27.4,23.1,54,46,39,0.00,40.00,0,-999,0,0.00
2013-11-21,54.9,50.9,47.5,43.0,36.2,29.4,74,57,43,0.00,40.00,0,-999,0,0.00
2013-11-22,63.6,56.9,50.7,54.5,49.7,42.8,84,77,72,0.00,40.00,0,-999,0,0.00
2013-11-23,66.2,57.7,44.1,56.4,47.4,26.4,94,71,39,0.00,40.00,0,-999,0,0.00
2013-11-24,47.9,39.6,32.7,27.6,21.1,14.2,59,48,38,0.00,40.00,0,-999,0,0.00
2013-11-25,46.2,37.8,29.1,21.9,17.6,13.2,51,43,37,0.00,40.00,0,-999,0,0.00
2013-11-26,47.8,38.8,34.4,44.2,30.2,16.9,89,72,39,0.00,40.00,0,-999,0,0.00
2013-11-27,48.0,39.7,29.5,45.5,28.9,15.7,94,67,42,0.00,40.00,0,-999,0,0.00
2013-11-28,48.4,37.0,23.5,28.3,21.8,14.4,67,54,42,0.00,40.00,0,-999,0,0.00
2013-11-29,57.0,38.4,25.3,34.3,24.1,17.6,71,56,38,0.00,40.00,0,-999,0,0.00
2013-11-30,51.4,40.4,33.4,27.2,23.4,21.0,63,51,39,0.00,40.00,0,-999,0,0.00
2013-12-1,56.2,45.5,37.4,36.2,29.9,23.1,69,55,45,0.00,40.00,0,-999,0,0.00
2013-12-2,57.9,48.4,40.7,48.5,40.8,32.3,87,75,69,0.00,40.00,0,-999,0,0.00
2013-12-3,57.2,53.9,50.2,54.7,51.1,46.7,96,90,86,0.00,40.00,0,-999,0,0.00
2013-12-4,69.6,60.5,55.2,65.6,58.9,54.5,99,95,83,0.00,40.00,0,-999,0,0.00
2013-12-5,70.5,66.4,62.8,68.5,65.4,61.8,100,97,92,0.00,40.00,0,-999,0,0.00
2013-12-6,74.3,69.4,63.8,68.9,65.2,60.8,94,87,75,0.00,40.00,0,-999,0,0.00
2013-12-7,63.8,55.4,48.7,60.8,51.1,45.6,93,86,74,0.00,40.00,0,-999,0,0.00
2013-12-8,50.5,44.7,39.6,46.0,42.9,38.7,97,93,83,0.00,40.00,0,-999,0,0.00
2013-12-9,48.5,42.9,38.8,48.2,42.4,38.3,99,98,97,0.00,40.00,0,-999,0,0.00
2013-12-10,53.0,47.4,34.4,52.6,39.0,23.1,100,75,41,0.00,40.00,0,-999,0,0.00
2013-12-11,52.2,39.5,28.0,33.8,28.1,22.6,79,64,47,0.00,40.00,0,-999,0,0.00
2013-12-12,52.2,40.2,32.4,27.6,23.0,17.1,66,51,36,0.00,40.00,0,-999,0,0.00
2013-12-13,55.6,40.0,26.1,32.0,24.1,16.7,66,52,39,0.00,40.00,0,-999,0,0.00
2013-12-14,52.1,46.4,43.2,46.3,37.7,28.0,89,73,53,0.00,40.00,0,-999,0,0.00
2013-12-15,50.1,44.0,33.6,46.8,34.8,25.1,96,71,49,0.00,40.00,0,-999,0,0.00
2013-12-16,57.2,40.7,30.0,37.5,27.3,23.1,77,60,35,0.00,40.00,0,-999,0,0.00
2013-12-17,61.3,46.0,32.2,39.0,29.5,23.4,73,54,37,0.00,40.00,0,-999,0,0.00
2013-12-18,55.3,43.6,34.5,31.1,21.8,16.8,52,42,30,0.00,40.00,0,-999,0,0.00
2013-12-19,62.1,42.8,28.9,34.8,24.4,17.2,62,48,35,0.00,40.00,0,-999,0,0.00
2013-12-20,56.5,45.2,34.8,44.4,33.3,22.0,76,63,52,0.00,40.00,0,-999,0,0.00
2013-12-21,69.4,59.4,49.1,63.2,53.3,41.9,88,80,74,0.00,40.00,0,-999,0,0.00
2013-12-22,69.3,64.4,59.7,65.6,61.9,58.1,98,92,83,0.00,40.00,0,-999,0,0.00
2013-12-23,59.5,53.0,39.4,59.2,49.6,34.1,99,88,69,0.00,40.00,0,-999,0,0.00
2013-12-24,46.6,38.0,29.8,34.1,24.6,15.9,82,60,38,0.00,40.00,0,-999,0,0.00
2013-12-25,43.3,34.7,26.4,22.1,19.2,16.2,62,52,41,0.00,40.00,0,-999,0,0.00
2013-12-26,55.7,42.1,32.7,32.8,23.8,19.1,61,48,38,0.00,40.00,0,-999,0,0.00
2013-12-27,50.4,38.2,29.3,29.9,24.8,21.6,71,58,41,0.00,40.00,0,-999,0,0.00
2013-12-28,48.0,38.6,30.0,36.3,28.6,22.1,86,67,49,0.00,40.00,0,-999,0,0.00
2013-12-29,56.7,46.4,40.6,47.4,40.3,35.7,90,80,67,0.00,40.00,0,-999,0,0.00
2013-12-30,53.4,46.8,40.5,43.3,39.1,35.3,84,75,62,0.00,40.00,0,-999,0,0.00
2013-12-31,50.7,43.3,35.8,38.2,30.3,23.2,75,61,42,0.00,40.00,0,-999,0,0.00
2014-1-1,49.2,41.5,33.8,35.8,30.1,23.2,73,64,55,0.00,40.00,0,-999,0,0.00
2014-1-2,50.7,43.7,27.8,47.9,36.6,11.3,91,76,45,0.00,40.00,0,-999,0,0.00